FENGYUN 1C DEB, 30379

Orbit data source: Space-Track

FENGYUN 1C DEB, 30379 is space debris in SSO originally from a launch on Mon, 10 May 1999 UTC launched from the Taiyaun Space Center, China (TSC). Fengyun 1C debris stems from the Chinese weather satellite Fengyun-1C, which was intentionally destroyed by a Chinese anti-satellite missile in 2007. This event dramatically increased the amount of space debris, with thousands of trackable fragments posing hazards to satellites and human spaceflight. The Fengyun 1C debris cloud has become a focal point in discussions about space sustainability and the need for international regulations to prevent the creation of new debris.

Loading next visibility...
Identifier
30379, 1999-025ACS
Orbit
SSO
Country
Flag of CNCN / PRC
Related business
Manufacturer
Unknown
Mission
Spacecraft
Bus & Motor
Unknown
Mass
Unknown
Launch date (UTC)
1999-05-10 (27 years ago)
Launch vehicle
Unknown
Launch site
Taiyaun Space Center, China (TSC)
Object type
Payload
Rocket body
Debris
Shape & HBR
Unknown shape, 0.1 m
Radar Cross Section
Small (<0.1 m²)

Expand to show TLE details & history
Last TLE update: 10 hours ago

TLE from 10 hours ago
0 FENGYUN 1C DEB
1 30379U 99025ACS 26071.50230267  .00000690  00000-0  42686-3 0  9992
2 30379  98.7554  88.5720 0036792  27.6054 127.1149 14.08140336980803
Epoch: 2026-03-12T12:03Z
TLE epoch observation values (Epoch: 2026-03-12T12:03:18.950Z)
Latitude
24.66175°
Longitude
-78.37464°
Altitude
884.857 km
Speed
7.404 km/s
True Right ascension
18h 10m 25s
True Declination
24° 32' 02"
Sunlit
Object was in daylight at epoch
Visualization orbit readout
Latitude
Unknown
Longitude
Unknown
Altitude
Unknown
Speed
Unknown
Apparent Right ascension
Unknown
Apparent Declination
Unknown
Sunlit
N/A
Visualization observer readout
Local Sidereal Time
02:14:09
Azimuth
Unknown
Elevation
Unknown
Doppler factor
Unknown
Orbital elements
Apogee altitude
889.56 km
Perigee altitude
836.278 km
Semi-major axis
7,241.056 km
Eccentricity
0.00368
Inclination
98.7554°
RAAN
88.572°
Arg. of periapsis
27.6054°
True anomaly
127.45017°
Mean anomaly
127.1149°
Eccentric anomaly
127.28263°
Mean motion
3.52241 °/min
Orbital period
102.2 mins
BSTAR
0.00042686
Loading maneuver chart data...
Computing Atmospheric mass density...

Documentation

Showing up to 5 results
|